Regional Weather Roundup
Issued by NWS

Home | Current Version | Previous Version | Text Only | Print | Product List | Glossary On
Versions: 1 2 3 4 5 6 7 8 9 10 11 12 13 14 15 16 17 18 19 20 21 22 23 24 25 26 27 28 29 30 31 32 33 34 35 36 37 38 39 40 41 42 43 44 45 46 47 48 49 50
000
ASUS46 KLOX 071013
RWRCA

SOUTHERN CALIFORNIA WEATHER ROUNDUP
NATIONAL WEATHER SERVICE OXNARD CALIFORNIA
200 AM PST SUN FEB 07 2016

NOTE: "FAIR" INDICATES FEW OR NO CLOUDS BELOW 12,000 FEET WITH NO
SIGNIFICANT WEATHER AND/OR OBSTRUCTIONS TO VISIBILITY.

  -  STATIONS PRECEEDED BY AN ASTERISK (*) ARE NOT NWS OR FAA
     STATIONS AND ARE NOT SUBJECT TO NWS AND FAA QUALITY CONTROL.

CAZ041-042-087-071100-
LA AND ORANGE COUNTY COASTAL AREAS


CITY           SKY/WX    TMP DP  RH WIND       PRES   REMARKS
L.A. DOWNTOWN  CLEAR     54  30  40 CALM      30.16R
L.A. AIRPORT   CLEAR     58  29  33 NE3       30.16S
LONG BEACH     CLEAR     57  32  38 W3        30.15F

CITY           SKY/WX    TMP DP  RH WIND       PRES   REMARKS
FULLERTON      CLEAR     53  31  42 CALM      30.14F
HAWTHORNE      CLEAR     56  29  35 CALM      30.16F
*LEO CARRILLO    N/A    N/A N/A N/A N12G28      N/A
*LOS ALAMITOS  FAIR      52  33  48 NW2       30.14F
*REDONDO BEACH   N/A     51  31  45 CALM      30.15F
SANTA ANA      CLEAR     54  32  43 CALM      30.14S
STA MONICA APT CLEAR     58  27  30 N5        30.16S
*UCLA            N/A     64  16  15 N7        30.13S

$$

CAZ547-548-048-071100-
LA COUNTY VALLEYS AND INLAND EMPIRE


CITY           SKY/WX    TMP DP  RH WIND       PRES   REMARKS
BURBANK        CLEAR     50  26  39 CALM      30.16S
VAN NUYS       CLEAR     64  18  17 N21G29    30.16S

CITY           SKY/WX    TMP DP  RH WIND       PRES   REMARKS
CORONA AIRPORT SUNNY     65  19  17 SE12      30.18F
*CHATSWORTH      N/A     68  22  17 N9        30.17F
CHINO          CLEAR     50  31  48 NE3       30.18F
*CLAREMONT       N/A     53  24  32 N2          N/A
MARCH AFB      CLEAR     47  23  37 VRB5      30.20S
ONTARIO        CLEAR     44  29  55 N5        30.17F
*PASADENA        N/A     54  30  40 E2          N/A
RIVERSIDE      CLEAR     61  18  18 E8        30.19S
SAN BERNARDINO NOT AVBL
*SAN GABRIEL     N/A     56  28  35 N3        30.23S
*SAN RAFAEL HI   N/A     61  19  19 S7          N/A
*SAUGUS          N/A     56  22  26 N10         N/A
*WHITEMAN AP   NOT AVBL
*WOODLAND HILL   N/A     63  16  16 SE5         N/A

$$

CAZ054-055-071100-
LA AND SAN BERNARDINO COUNTY MOUNTAINS


CITY           SKY/WX    TMP DP  RH WIND       PRES   REMARKS
*BIG BEAR AIRP SUNNY     23  16  74 CALM      30.40S
*CHILAO          N/A     52   3  13 NE28        N/A
SANDBERG       CLEAR     49  19  30 E24G30    30.33S
*WARM SPRINGS    N/A     51  37  57 CALM        N/A

$$

CAZ028-029-059-060-099-071100-
ANTELOPE VALLEY AND SURROUNDING AREAS


CITY           SKY/WX    TMP DP  RH WIND       PRES   REMARKS
LANCASTER      CLEAR     32  25  75 W3        30.35S
PALMDALE       CLEAR     38  24  57 CALM      30.35S
*POPPY PARK      N/A     40  22  49 W2          N/A

CITY           SKY/WX    TMP DP  RH WIND       PRES   REMARKS
29 PALMS       CLEAR     46  17  31 NW7       30.38R
BARSTOW/DAGGET CLEAR     42  21  43 W10       30.33S
BISHOP         PTCLDY    33  26  75 NW9       30.42S WCI  25
CHINA LAKE     CLEAR     36  26  67 S7        30.34F WCI  30
EDWARDS AFB    CLEAR     36  23  59 SW6       30.33S WCI  31
MOJAVE         CLEAR     39  27  60 NW5       30.34S
NEEDLES        CLEAR     55  25  31 NW7       30.27S
VICTORVILLE    CLEAR     36  18  48 CALM      30.34S

$$

CAZ039-040-071100-
VENTURA AND SANTA BARBARA COUNTY COAST


CITY           SKY/WX    TMP DP  RH WIND       PRES   REMARKS
CAMARILLO      CLEAR     67  21  17 E15       30.16F
NWS OXNARD       N/A     66  24  20 E6        30.15F
OXNARD AIRPORT CLEAR     60  29  30 NE7       30.16F
*POINT MUGU    CLEAR     65  24  21 E14       30.17F
SBA APT/GOLETA CLEAR     47  37  68 NE3       30.16F
*SANTA BARBARA   N/A     51  34  52 CALM      30.23F
*VENTURA         N/A     58  29  32 NE2       30.15F

$$

CAZ044-045-071100-
VENTURA COUNTY VALLEYS


CITY           SKY/WX    TMP DP  RH WIND       PRES   REMARKS
*SIMI VALLEY     N/A     63  26  24 NE15      30.12S
*WESTLAKE VILL   N/A     49  32  52 CALM      30.17F
*OJAI            N/A     39  35  83 CALM      30.14F
*FILLMORE        N/A     64  31  29 E6        30.06F

$$

CAZ053-071100-
VENTURA COUNTY MOUNTAINS


CITY           SKY/WX    TMP DP  RH WIND       PRES   REMARKS
*LOCKWOOD VLY    N/A     34  21  60 MISG        N/A
*ROSE VALLEY     N/A     28  28 100 MISG        N/A

$$

CAZ034-035-036-071100-
CENTRAL COAST AND SANTA YNEZ VALLEY


CITY           SKY/WX    TMP DP  RH WIND       PRES   REMARKS
SAN LUIS OBISP CLEAR     59  31  34 VRB6      30.21S
SANTA MARIA    CLEAR     46  37  71 S5        30.20S

CITY           SKY/WX    TMP DP  RH WIND       PRES   REMARKS
*CAL POLY SLO    N/A     61  32  33 NE15        N/A
*LOMPOC        CLEAR     45  36  70 E7        30.19S
*SANTA YNEZ    FAIR      41  34  75 N3        30.19F

$$

CAZ037-038-051-071100-
SAN LUIS OBISPO COUNTY INTERIOR AND CUYAMA VALLEY


CITY           SKY/WX    TMP DP  RH WIND       PRES   REMARKS
*CUYAMA          N/A     38  34  85 E3        30.30F
PASO ROBLES    CLEAR     42  39  89 CALM      30.30S

$$

CAZ032-033-061-071100-
SOUTHERN DESERTS


CITY           SKY/WX    TMP DP  RH WIND       PRES   REMARKS
BLYTHE         CLEAR     49  24  37 W3        30.23S
IMPERIAL       CLEAR     47  24  40 W5        30.20S
PALM SPRINGS   CLEAR     54  27  35 NW9       30.24F
THERMAL        CLEAR     44  27  51 CALM      30.20S

$$

ELSEWHERE ACROSS THE WESTERN UNITED STATES AND MEXICO


CITY           SKY/WX    TMP DP  RH WIND       PRES   REMARKS
DENVER, CO     CLOUDY    41  10  28 W25G33    30.12R WCI  31
GRAND CANYON,  CLEAR     20  11  68 E3        30.39F
HONOLULU, HI   PTCLDY    70  61  73 N9        29.98F
KAHULUI, MAUI  HVY RAIN  70  68  94 MISG      30.00  FOG
LAKE TAHOE, CA CLEAR     23  20  88 S6        30.48R WCI  16
LAS VEGAS, NV  CLEAR     46  26  45 E6        30.31F
MAMMOTH LAKES, FAIR      27  18  69 CALM      30.48F
MEXICO CITY, M CLEAR     41  27  56 E7        30.41F
PHOENIX, AZ    CLEAR     52  25  35 VRB3      30.18F
PORTLAND, OR   CLOUDY    44  41  89 W3        30.49S
RENO, NV       PTCLDY    30  25  81 CALM      30.48F
SALT LAKE CITY MOCLDY    25  20  81 SE6       30.49S WCI  18
SAN DIEGO, CA  CLEAR     55  32  41 CALM      30.15S
SAN FRANCISCO, PTCLDY    51  46  83 CALM      30.30F
SAN JOSE, CA   CLEAR     48  44  86 CALM      30.31F
SEATTLE, WA    PTCLDY    38  34  85 CALM      30.51R
TIJUANA, MEX   CLEAR     54  21  28 NE5       30.16S

$$

STATION/POSITION TIME  TEMP    WIND        PRES    VSBY  WAVE
                       AIR SEA DIR/SP/G                  HT/PER
                 (UTC) (F)     (DEG/KT/KT) (MB)    (MI)  (FT/S)
POINT ARGUELLO B NOT AVBL
WEST SANTA BARBA 0950   59 58  300/  2/  4 1020.9F         7/13
POINT CONCEPTION NOT AVBL
EAST SANTA BARBA 0900   58 57  190/  4/  6 1022.0F
SANTA MONICA BAY 0950   62 59   50/  4/  6 1020.9F         3/13


USA.gov is the U.S. government's official web portal to all federal, state and local government web resources and services.